Wetbulb
57.81 57.97 58.24 58.40 58.44 58.98 59.53 59.91 59.97 59.90 60.10 60.42 60.54 60.50 60.48 60.83 60.21 53.35 47.94 54.33 56.03 63.65 58.07 51.04 50.16 49.03 48.30 47.16 47.31 43.41 36.62 33.50 36.29 37.18 40.15 40.62 39.93 42.09 42.58 41.23 42.36 45.19 42.66 43.27 44.64
57.33 57.44 57.68 57.87 57.86 58.24 58.75 59.20 59.27 59.31 59.42 59.77 60.02 60.25 60.25 60.22 52.79 49.24 57.49 63.60 65.00 63.73 51.15 48.96 46.49 46.96 44.54 45.09 45.55 41.92 33.94 36.35 39.61 40.21 39.85 41.48 40.79 41.31 41.71 39.89 41.01 42.96 42.18 43.25 44.34
56.81 56.89 57.16 57.26 57.30 57.45 58.01 58.36 58.45 58.73 58.98 59.07 59.50 59.92 59.95 58.03 46.89 45.78 63.14 64.88 65.67 60.72 51.57 49.19 47.97 47.08 42.42 43.56 44.15 41.87 38.49 40.30 43.13 44.18 43.09 41.97 40.32 42.15 40.20 39.74 42.00 43.12 44.05 42.49 42.14
57.12 57.04 57.07 56.98 56.96 57.20 57.59 57.81 57.95 58.14 58.44 58.63 59.08 59.64 59.89 52.94 37.70 48.20 64.31 65.45 64.54 53.42 50.30 47.85 45.98 43.31 41.05 41.11 43.86 39.91 43.44 43.03 44.60 44.78 42.72 41.12 41.88 40.74 41.25 45.80 45.01 44.64 42.82 42.05 41.43
57.64 57.38 56.97 56.70 56.75 57.21 57.55 57.70 57.74 57.74 57.84 58.18 58.74 59.76 53.31 43.80 45.22 54.40 62.80 62.59 53.89 50.54 47.96 45.83 43.92 43.58 40.69 40.63 41.23 40.79 42.40 44.52 44.40 44.39 43.31 42.59 42.22 41.41 41.95 43.68 44.23 43.96 42.93 42.48 42.72
57.38 57.15 57.03 56.94 56.80 57.19 57.53 57.70 57.66 57.62 57.56 57.82 58.54 59.51 47.19 39.38 48.79 55.57 54.31 52.05 50.20 48.86 46.29 45.75 43.91 45.11 41.86 41.87 41.11 40.83 41.97 42.72 42.69 43.13 42.86 42.51 41.59 40.52 45.99 41.70 43.46 43.22 42.42 41.82 42.51
57.50 57.18 56.92 56.87 57.24 57.60 57.68 57.68 57.77 57.66 57.53 57.80 58.16 56.62 46.40 44.38 50.13 52.90 50.95 48.83 49.34 48.58 45.66 46.26 46.29 43.96 41.87 40.44 43.32 41.48 39.64 39.88 40.49 41.95 41.92 41.18 40.10 38.85 46.04 42.28 43.01 42.16 42.58 41.79 42.49
57.35 56.88 56.75 56.88 57.16 57.57 57.95 58.24 58.27 58.16 57.91 57.93 58.53 51.66 41.48 49.55 48.79 48.85 48.40 47.09 48.07 48.49 48.07 47.49 47.48 44.86 42.94 43.05 41.13 37.00 35.94 33.03 38.41 39.52 40.20 41.28 37.05 42.81 42.81 42.09 42.50 42.07 40.36 41.10 42.64
57.07 56.67 56.85 57.14 57.14 57.34 57.77 58.05 58.00 57.43 57.37 59.24 51.67 46.38 42.29 52.73 47.29 48.93 47.98 46.91 47.11 46.99 46.72 50.24 46.36 42.01 40.29 35.78 33.22 31.19 29.29 30.66 34.60 41.04 39.59 38.47 36.02 40.97 40.31 39.40 40.58 40.79 40.98 40.91 41.76
57.20 56.98 57.18 57.39 57.38 57.58 57.91 57.65 56.44 55.44 56.73 56.57 53.84 42.79 45.14 44.95 47.81 48.18 46.32 47.70 45.13 44.97 43.67 42.70 40.26 36.46 35.43 33.38 28.54 29.80 28.41 30.78 31.69 36.68 35.73 35.20 35.78 41.34 43.06 40.10 41.49 41.82 40.86 41.76 42.46
57.55 57.47 57.63 57.65 57.83 58.30 55.19 47.09 42.34 40.60 45.81 43.41 44.33 43.14 43.87 46.89 48.59 46.09 47.34 46.45 45.08 41.55 36.36 38.37 34.25 32.66 37.05 36.96 38.37 32.05 30.82 30.66 36.21 38.36 35.11 35.59 37.51 40.18 43.33 42.07 39.74 41.51 43.32 44.68 45.11
57.95 57.81 57.77 57.70 57.94 57.71 48.73 44.67 43.08 43.12 38.20 43.29 43.46 44.48 46.63 47.56 42.95 44.89 47.18 42.42 40.94 36.69 36.72 34.68 31.70 38.81 36.87 35.96 35.59 34.48 33.57 32.94 37.40 39.56 34.72 35.49 35.94 39.61 41.26 42.11 43.74 44.29 44.50 43.48 45.32
58.02 57.66 57.53 57.52 57.27 51.61 46.09 44.79 48.58 46.57 37.44 40.60 42.66 41.58 42.34 45.88 42.09 43.10 45.08 41.21 38.41 35.78 35.26 34.36 37.24 39.59 36.90 34.84 34.31 31.92 31.38 34.17 33.67 35.44 34.45 32.35 33.43 35.55 39.25 41.17 43.70 44.95 45.64 45.65 44.87
58.14 57.74 57.69 57.46 51.98 48.67 45.33 47.38 47.78 44.82 31.38 35.72 38.83 41.02 43.30 43.75 38.50 43.35 43.49 42.02 37.01 36.18 35.23 34.41 38.61 37.73 34.31 34.17 35.18 32.45 36.34 36.08 34.80 30.20 28.83 32.04 27.61 32.07 36.20 36.13 38.80 41.13 42.82 43.63 44.23
57.76 57.70 57.82 56.52 49.25 49.21 48.25 47.85 46.46 40.27 27.80 39.35 38.14 45.43 43.42 38.58 39.21 39.42 41.76 39.94 35.84 35.50 34.76 33.86 34.17 33.13 33.38 36.14 36.45 34.31 35.72 34.49 31.45 28.70 27.00 28.18 26.01 30.37 34.94 34.29 38.11 41.59 42.72 43.75 45.00
57.21 57.67 57.03 53.94 50.85 51.60 49.93 47.85 43.40 34.44 29.47 36.44 37.71 37.10 37.10 38.10 37.95 38.66 38.69 40.26 38.86 35.43 34.94 35.38 35.85 36.47 36.28 36.02 36.28 35.23 32.79 31.12 28.20 27.35 23.29 30.56 28.87 30.42 30.79 34.71 36.36 38.60 40.17 41.91 42.49
54.98 55.65 55.10 54.70 51.45 50.83 49.86 46.04 38.88 32.67 39.62 35.55 34.10 36.38 34.44 33.91 35.43 35.39 34.70 33.68 32.31 28.71 27.73 30.56 33.36 35.43 36.85 33.09 33.35 34.04 30.17 23.58 21.23 20.06 25.30 29.36 27.64 35.08 35.71 38.68 38.01 39.38 40.81 41.82 41.25
54.30 54.53 55.05 55.83 53.10 52.62 51.09 43.99 34.08 39.01 37.62 39.07 36.50 34.97 34.35 35.97 36.02 34.60 31.26 30.29 33.40 30.03 27.36 27.36 30.01 33.13 35.30 35.57 33.10 31.22 31.83 24.46 15.64 21.43 28.36 26.61 24.15 35.45 37.85 39.02 39.11 38.84 38.43 38.82 38.98
53.15 53.75 53.99 54.38 53.52 53.69 47.80 37.76 37.52 39.62 42.07 40.24 41.48 37.84 34.87 35.10 36.48 33.13 30.23 30.63 33.64 34.39 31.61 29.12 28.96 32.98 34.46 35.12 36.74 29.42 28.13 33.76 25.51 13.83 18.35 29.78 31.09 38.36 39.53 35.78 36.31 37.36 36.71 36.88 37.27
48.20 49.68 50.05 54.54 53.51 51.01 43.27 38.98 40.76 43.79 42.73 41.93 36.91 39.42 32.84 32.63 32.28 33.55 33.10 34.03 34.10 35.12 36.49 33.66 29.72 33.29 30.89 32.04 32.78 32.69 33.04 26.07 25.46 17.80 15.42 24.75 25.31 29.78 35.11 36.96 37.92 37.42 38.59 38.88 38.75
46.72 43.29 47.40 54.05 52.41 45.39 37.17 39.07 41.81 45.54 44.66 41.74 39.85 39.06 38.49 37.60 37.84 38.01 38.35 38.02 37.78 35.74 35.98 36.01 33.54 33.16 33.64 31.28 33.44 28.31 27.66 28.71 29.68 28.63 24.95 23.33 27.68 39.57 39.26 40.90 38.86 38.76 37.24 37.48 38.69
43.75 36.49 49.83 52.60 42.01 42.03 38.88 40.78 42.57 42.33 44.46 42.96 42.13 41.48 39.18 39.02 37.75 37.88 37.53 40.02 40.38 39.14 35.89 36.90 34.89 29.30 32.33 37.38 34.42 33.28 33.04 33.01 28.53 26.40 28.67 29.00 29.84 39.82 41.88 42.44 41.60 41.62 38.71 37.74 37.27
40.22 40.18 50.43 49.16 36.21 36.90 39.74 39.93 41.74 40.67 40.98 41.27 40.11 41.38 41.79 38.47 35.14 38.27 38.58 41.47 42.59 40.98 37.71 37.57 33.14 28.62 29.68 31.31 32.89 31.20 33.66 34.67 34.85 32.63 27.46 24.36 27.20 40.52 41.16 41.44 42.85 42.21 41.16 37.24 37.83
36.43 32.17 41.25 44.68 43.19 39.60 37.40 37.19 37.64 41.62 40.83 41.74 40.35 41.25 38.71 36.72 38.40 35.66 36.11 38.71 39.30 39.09 41.69 41.45 35.99 32.69 28.17 30.51 33.68 29.76 30.82 32.82 33.14 28.56 28.79 29.49 31.23 35.89 38.35 39.20 41.03 41.90 43.14 41.43 41.27
33.43 29.95 36.01 32.69 36.16 37.54 37.54 36.08 34.08 34.35 38.43 40.27 38.04 38.36 37.24 34.17 34.12 34.19 33.43 32.83 35.26 37.76 37.68 36.42 30.79 33.26 33.78 33.41 33.37 33.19 32.74 33.43 31.57 31.98 28.08 30.89 31.49 35.66 37.92 39.21 41.03 42.47 42.81 41.59 37.59
30.51 29.98 33.24 31.09 31.82 31.20 33.64 34.15 34.37 35.06 35.94 35.23 34.91 32.55 33.34 31.81 31.95 28.08 25.87 28.87 27.69 30.70 28.81 31.78 25.75 29.12 26.02 29.07 29.90 29.81 32.48 33.28 33.03 32.69 32.45 33.36 32.94 38.85 38.22 35.26 35.07 35.89 34.71 33.54 32.66
32.71 33.81 33.79 28.05 27.52 25.08 27.84 29.17 29.76 29.18 32.38 34.12 28.84 27.06 26.02 28.45 29.41 29.58 29.96 29.30 28.25 25.36 24.25 25.41 24.51 21.98 18.44 24.39 23.75 20.15 26.12 28.40 29.97 32.40 31.34 27.61 27.49 27.50 26.25 26.93 27.85 31.07 29.72 29.67 30.92
MSLP
1020.04 1019.82 1019.67 1019.55 1019.34 1019.02 1018.70 1018.51 1018.29 1018.09 1017.83 1017.55 1017.24 1016.97 1016.69 1016.40 1015.95 1016.01 1015.46 1013.74 1013.73 1014.05 1014.42 1015.07 1015.30 1015.44 1015.67 1016.06 1016.44 1017.11 1017.93 1017.99 1016.88 1015.72 1014.31 1013.59 1013.60 1013.18 1013.17 1013.45 1013.64 1013.58 1013.64 1013.93 1014.45
1020.18 1019.98 1019.69 1019.49 1019.32 1019.07 1018.82 1018.51 1018.28 1018.02 1017.79 1017.55 1017.28 1017.00 1016.71 1016.48 1016.23 1015.32 1013.33 1013.30 1013.55 1014.01 1014.59 1015.12 1015.52 1015.70 1016.12 1016.34 1016.68 1017.16 1017.87 1016.93 1015.55 1014.61 1013.97 1013.47 1013.42 1013.11 1013.29 1013.41 1013.53 1013.51 1013.69 1014.29 1014.82
1020.18 1019.98 1019.83 1019.60 1019.35 1019.11 1018.84 1018.63 1018.32 1018.08 1017.75 1017.45 1017.25 1016.98 1016.62 1016.44 1016.04 1013.78 1012.93 1013.09 1013.38 1013.77 1014.19 1014.76 1015.29 1015.71 1016.27 1016.43 1016.50 1016.80 1016.79 1015.93 1014.84 1014.31 1013.85 1013.53 1013.28 1013.01 1013.19 1013.26 1013.08 1013.22 1013.27 1014.31 1014.98
1020.32 1020.03 1019.76 1019.54 1019.33 1019.13 1018.93 1018.64 1018.35 1017.97 1017.72 1017.43 1017.13 1016.82 1016.45 1016.22 1015.35 1013.22 1013.09 1013.26 1013.57 1013.89 1014.38 1014.85 1015.40 1015.92 1016.28 1016.42 1016.13 1016.68 1015.80 1015.53 1014.54 1014.09 1013.97 1013.73 1013.16 1013.12 1013.02 1011.73 1011.73 1012.07 1012.73 1013.90 1014.51
1020.32 1020.11 1019.83 1019.57 1019.28 1018.97 1018.71 1018.49 1018.24 1017.97 1017.69 1017.37 1017.02 1016.67 1016.35 1016.07 1014.35 1012.96 1013.12 1013.54 1014.03 1014.30 1014.51 1014.88 1015.36 1015.67 1016.00 1016.00 1016.07 1016.19 1015.55 1015.08 1014.48 1014.45 1014.21 1013.91 1013.23 1013.26 1012.23 1011.37 1011.69 1012.00 1012.62 1013.03 1013.42
1020.30 1020.08 1019.89 1019.65 1019.31 1018.98 1018.57 1018.19 1017.89 1017.67 1017.43 1017.28 1017.01 1016.84 1016.49 1015.53 1012.77 1013.03 1013.48 1013.87 1014.00 1014.41 1014.71 1014.94 1015.09 1015.20 1015.60 1015.66 1015.83 1015.33 1015.14 1014.87 1014.49 1014.18 1014.14 1014.08 1013.08 1013.14 1010.76 1010.95 1011.24 1011.62 1011.80 1012.10 1012.51
1020.19 1020.00 1019.82 1019.63 1019.27 1018.89 1018.44 1017.99 1017.59 1017.26 1017.02 1016.94 1016.90 1016.96 1016.36 1013.58 1012.63 1013.02 1013.41 1013.78 1013.97 1014.21 1014.50 1014.68 1014.70 1015.06 1015.46 1015.51 1015.15 1015.31 1015.48 1014.80 1013.97 1013.38 1013.69 1013.71 1013.01 1012.26 1009.83 1010.81 1010.90 1011.01 1010.95 1011.16 1010.99
1020.07 1019.86 1019.68 1019.46 1019.12 1018.66 1018.09 1017.67 1017.04 1016.64 1016.46 1016.48 1016.75 1016.88 1015.35 1012.87 1012.95 1013.34 1013.49 1013.69 1013.83 1013.99 1014.06 1014.29 1014.45 1014.96 1015.25 1015.26 1015.54 1016.00 1016.08 1015.51 1013.47 1013.59 1013.37 1013.63 1012.00 1010.29 1009.96 1010.59 1010.39 1010.12 1010.32 1010.36 1009.94
1019.84 1019.71 1019.52 1019.27 1018.89 1018.35 1017.64 1016.97 1016.34 1015.91 1015.97 1016.17 1016.64 1016.57 1014.81 1013.09 1013.11 1012.91 1013.11 1013.47 1013.85 1014.19 1014.24 1014.24 1014.51 1015.09 1015.42 1016.09 1016.77 1016.78 1016.47 1015.73 1014.40 1013.10 1013.42 1013.53 1012.29 1010.09 1010.11 1010.63 1010.43 1009.99 1009.59 1009.47 1008.83
1019.57 1019.44 1019.33 1019.10 1018.73 1018.13 1017.35 1016.55 1016.44 1016.07 1016.18 1016.27 1016.19 1016.60 1013.91 1012.95 1012.87 1013.05 1013.38 1013.61 1014.05 1014.43 1014.84 1015.02 1015.56 1015.84 1016.35 1016.51 1016.66 1016.33 1016.56 1015.66 1015.04 1013.08 1013.31 1013.28 1012.17 1010.79 1009.85 1010.38 1010.00 1009.59 1008.95 1008.47 1008.16
1019.32 1019.21 1019.06 1019.02 1018.71 1018.00 1017.38 1016.90 1016.99 1016.84 1016.53 1015.44 1015.17 1014.59 1013.33 1012.99 1012.75 1013.28 1013.44 1013.72 1014.31 1014.88 1015.43 1015.73 1016.23 1015.79 1014.60 1015.21 1014.91 1015.56 1015.61 1015.21 1013.56 1013.08 1013.45 1012.89 1011.93 1011.09 1009.91 1009.63 1009.08 1008.43 1007.75 1006.91 1006.23
1018.95 1018.92 1018.78 1018.86 1018.69 1018.04 1017.91 1018.54 1018.98 1019.26 1017.48 1015.08 1014.51 1014.15 1012.78 1012.75 1013.18 1013.41 1013.56 1014.16 1014.69 1015.20 1015.70 1016.41 1015.78 1014.21 1014.72 1015.25 1015.72 1015.55 1015.32 1014.77 1013.24 1012.68 1013.28 1012.20 1010.89 1010.33 1009.95 1008.51 1007.37 1006.78 1006.33 1005.41 1004.39
1018.48 1018.74 1018.56 1018.72 1018.75 1018.30 1018.68 1018.97 1019.00 1019.18 1018.58 1015.08 1013.82 1013.35 1012.89 1012.81 1012.86 1013.07 1013.47 1014.08 1014.66 1015.40 1015.41 1015.13 1014.28 1014.40 1014.91 1015.25 1015.46 1015.42 1015.77 1014.28 1013.79 1013.04 1012.63 1011.73 1009.55 1009.13 1007.97 1007.44 1006.33 1005.19 1004.16 1004.18 1003.76
1018.32 1018.36 1018.43 1018.46 1019.15 1019.03 1018.63 1018.47 1018.87 1019.27 1018.45 1015.11 1013.41 1012.51 1012.49 1012.55 1012.81 1012.90 1012.90 1013.45 1014.60 1014.57 1015.23 1015.07 1013.79 1013.99 1014.61 1015.00 1014.60 1014.57 1013.80 1014.07 1014.07 1014.48 1013.64 1012.17 1006.94 1007.19 1006.47 1006.10 1005.36 1004.34 1003.55 1003.29 1002.88
1018.16 1018.28 1018.34 1018.57 1019.00 1019.07 1018.90 1018.73 1019.10 1019.33 1017.49 1013.98 1013.16 1012.62 1012.57 1012.97 1012.76 1013.11 1013.16 1013.22 1013.68 1014.54 1014.96 1013.75 1013.56 1013.81 1014.09 1013.10 1013.89 1013.19 1013.29 1013.72 1014.05 1014.23 1013.79 1012.28 1011.71 1005.60 1005.00 1005.40 1004.56 1003.39 1003.27 1002.66 1001.72
1017.95 1018.26 1018.18 1018.78 1019.00 1018.43 1018.70 1018.89 1019.16 1019.29 1015.83 1013.47 1012.98 1012.93 1013.04 1013.13 1013.34 1013.37 1013.57 1013.61 1013.56 1014.17 1014.29 1013.69 1013.20 1013.13 1012.65 1012.68 1012.90 1013.29 1013.57 1014.28 1015.08 1014.96 1013.24 1011.32 1011.04 1004.07 1004.90 1004.38 1003.87 1003.14 1002.53 1002.34 1001.69
1018.01 1018.22 1018.38 1018.19 1018.23 1018.16 1018.50 1019.32 1019.18 1016.96 1014.34 1013.13 1012.92 1013.17 1013.24 1013.48 1013.65 1013.68 1014.03 1014.12 1013.98 1014.12 1013.96 1013.29 1012.87 1012.06 1012.16 1012.65 1013.05 1013.13 1014.15 1015.08 1015.30 1015.09 1011.74 1009.57 1009.87 1004.29 1004.19 1003.51 1003.49 1003.10 1002.51 1002.05 1001.91
1017.87 1018.20 1018.16 1017.96 1018.11 1018.20 1019.05 1019.48 1017.29 1015.47 1014.46 1013.16 1012.77 1013.19 1013.55 1013.44 1013.36 1013.64 1014.03 1014.32 1013.90 1013.88 1013.93 1013.62 1011.97 1011.71 1011.63 1011.80 1012.04 1012.79 1013.35 1014.19 1013.86 1012.93 1010.90 1010.11 1007.04 1002.25 1003.06 1002.80 1002.68 1002.51 1003.00 1002.85 1002.90
1018.09 1017.86 1017.68 1017.54 1017.98 1018.21 1018.78 1017.27 1015.13 1014.50 1013.71 1013.16 1013.07 1013.28 1013.59 1013.24 1013.62 1013.87 1014.05 1013.61 1012.98 1013.13 1013.61 1012.86 1011.20 1011.17 1011.27 1011.09 1011.52 1012.41 1012.63 1011.66 1012.55 1012.14 1011.71 1008.35 1005.50 1003.10 1001.80 1001.73 1002.46 1002.37 1002.21 1002.55 1002.35
1018.49 1018.00 1017.04 1016.59 1017.52 1018.21 1017.84 1015.43 1014.39 1013.61 1013.43 1013.33 1013.14 1012.93 1012.93 1013.38 1013.77 1013.75 1013.52 1012.69 1012.15 1012.22 1012.05 1012.23 1011.70 1010.66 1010.98 1011.43 1011.19 1011.32 1011.76 1012.23 1012.47 1012.19 1010.40 1007.66 1005.74 1003.21 1000.82 1001.00 1001.21 1001.85 1002.13 1002.16 1002.30
1018.74 1018.05 1016.14 1015.99 1017.19 1017.83 1015.92 1014.54 1013.84 1013.16 1013.18 1013.25 1012.90 1012.82 1012.81 1013.10 1012.97 1013.00 1012.51 1012.42 1012.15 1012.05 1012.07 1012.28 1012.35 1010.89 1011.40 1010.93 1011.22 1011.75 1011.54 1011.87 1011.74 1010.83 1009.25 1007.59 1005.08 1001.64 1000.60 1000.32 1001.00 1001.32 1001.98 1002.43 1002.37
1018.52 1017.96 1016.45 1016.15 1016.89 1016.24 1014.84 1014.21 1014.13 1013.48 1013.09 1013.17 1012.99 1012.83 1012.58 1012.78 1012.92 1013.00 1012.33 1012.16 1011.99 1012.14 1012.51 1012.72 1012.45 1012.53 1010.73 1010.33 1010.32 1010.50 1010.48 1010.57 1010.50 1008.75 1007.85 1006.11 1003.28 1002.06 1000.72 1000.66 1000.77 1000.61 1001.61 1002.18 1001.98
1018.74 1017.67 1016.50 1016.49 1015.92 1015.43 1014.59 1013.97 1013.67 1013.38 1013.06 1012.77 1012.90 1012.77 1013.00 1012.63 1012.77 1012.22 1012.54 1012.59 1012.50 1012.52 1011.79 1012.72 1011.80 1011.77 1011.12 1010.26 1010.28 1010.69 1009.32 1009.51 1009.48 1009.08 1007.83 1006.03 1003.62 1003.51 1002.63 1001.41 1000.22 1000.81 1000.50 1000.89 1001.23
1019.54 1018.37 1017.18 1016.48 1015.88 1015.66 1015.08 1014.01 1013.62 1012.96 1012.94 1012.86 1012.62 1013.35 1013.22 1012.98 1012.94 1012.36 1012.72 1013.03 1013.04 1013.03 1012.74 1012.84 1012.27 1011.32 1010.32 1010.44 1010.09 1010.23 1009.61 1008.98 1009.20 1008.30 1006.36 1005.30 1003.74 1004.04 1003.27 1002.76 1002.31 1001.46 1001.25 1001.32 1001.71
1019.78 1019.16 1018.31 1017.22 1016.50 1016.25 1015.74 1014.74 1014.20 1013.71 1013.46 1013.33 1013.25 1013.69 1013.68 1013.77 1013.82 1014.03 1014.60 1014.49 1014.22 1014.16 1013.99 1013.89 1012.46 1012.41 1011.21 1011.12 1011.03 1009.99 1009.84 1009.29 1008.41 1007.52 1007.08 1005.79 1004.99 1004.46 1003.80 1003.43 1002.93 1002.25 1002.08 1002.45 1003.96
1020.20 1019.81 1019.11 1018.46 1017.86 1017.10 1016.39 1015.50 1015.08 1014.38 1014.78 1014.30 1014.79 1015.24 1015.70 1015.25 1015.71 1016.43 1016.77 1016.88 1015.85 1015.57 1015.65 1015.15 1014.12 1013.77 1012.61 1011.59 1011.23 1010.38 1010.01 1008.57 1008.33 1007.59 1007.34 1006.97 1006.05 1006.11 1005.69 1005.99 1005.88 1005.49 1005.29 1006.08 1006.59
1020.25 1020.08 1019.83 1018.71 1018.88 1018.32 1017.15 1016.64 1016.49 1016.53 1016.19 1016.08 1016.52 1016.80 1017.00 1017.20 1017.83 1018.21 1018.30 1018.02 1017.58 1016.98 1016.39 1016.62 1015.74 1014.86 1013.18 1011.91 1011.91 1010.20 1009.04 1008.67 1007.95 1007.59 1008.20 1008.85 1009.85 1009.84 1009.14 1009.19 1009.29 1008.63 1008.22 1008.29 1007.95
Wind_Speed
12 12 13 13 13 13 13 14 14 14 13 13 13 13 13 12 7 2 6 9 5 13 6 6 2 2 3 1 3 4 3 3 6 4 5 2 2 2 1 2 3 7 4 2 5
11 12 13 14 15 14 14 13 14 13 13 13 13 12 12 11 2 7 9 4 7 13 6 7 4 4 1 1 1 4 4 9 6 4 4 3 3 3 1 3 5 5 1 3 7
10 11 13 14 15 16 15 15 14 14 13 13 13 13 11 4 4 7 0 9 13 11 6 5 5 4 1 2 4 5 7 6 6 7 4 4 3 4 4 7 10 10 9 7 8
11 12 13 13 14 15 15 15 16 15 14 14 13 13 12 1 6 2 2 7 10 7 7 6 4 4 3 5 4 3 8 6 6 4 3 4 3 5 8 18 6 13 3 8 12
9 10 12 13 14 15 16 16 16 15 14 14 13 11 3 2 11 3 7 8 6 4 6 6 5 5 5 4 2 5 5 6 7 8 8 5 11 8 12 14 10 9 7 11 13
9 10 11 12 14 16 17 17 17 16 15 13 12 8 3 4 3 7 8 6 5 5 4 5 5 6 3 4 6 4 5 7 5 7 6 6 9 4 20 3 12 10 13 11 14
9 11 11 13 14 16 18 18 18 17 15 13 8 2 2 16 2 7 8 5 6 6 5 4 4 2 0 4 3 4 8 8 7 7 9 6 12 13 26 5 12 12 12 11 17
9 11 12 13 15 18 19 19 19 17 15 12 4 2 9 2 4 6 4 3 4 4 5 3 5 4 4 3 7 5 2 5 2 6 4 8 19 17 10 8 16 12 10 11 14
9 11 12 13 15 19 22 24 18 8 3 7 4 3 11 2 2 4 5 6 6 3 2 3 5 4 1 5 4 3 6 8 13 12 6 8 11 9 3 5 12 12 11 10 13
9 11 12 14 15 19 23 19 4 3 4 2 1 2 5 5 2 4 1 6 4 5 4 3 5 2 2 5 9 9 6 6 8 5 4 5 15 16 15 7 14 14 12 14 13
9 10 11 13 15 18 12 5 5 3 2 9 7 5 5 1 1 3 3 5 4 4 6 3 5 11 21 15 15 4 6 8 16 9 4 11 19 18 21 13 15 16 19 21 21
8 8 11 11 13 17 3 5 1 2 10 7 10 8 6 3 2 3 5 6 5 7 6 3 10 19 1 3 7 10 15 17 17 21 6 17 23 20 17 22 24 23 21 22 22
7 8 9 9 14 4 2 1 1 2 4 10 6 5 5 8 9 7 11 4 5 7 9 12 11 10 6 4 10 4 8 18 17 9 7 9 17 15 16 19 25 27 27 21 21
8 8 7 8 4 2 1 2 2 2 4 9 4 4 2 4 3 1 3 7 3 11 7 8 7 10 5 7 11 15 13 15 13 3 9 4 16 9 10 12 12 20 18 18 19
6 8 5 4 2 2 1 3 4 3 9 4 2 1 1 5 5 2 0 2 6 5 5 11 4 4 6 16 9 11 4 7 4 5 6 6 7 2 8 8 16 20 18 20 21
6 4 7 2 0 1 3 4 2 3 11 5 1 1 2 1 1 2 2 2 2 3 5 9 2 5 9 5 10 1 2 2 4 2 9 13 9 4 7 8 7 8 12 14 15
7 10 5 3 4 5 4 4 2 8 2 4 2 2 1 3 3 3 4 5 6 1 5 2 6 4 5 3 2 5 5 5 5 1 15 5 7 16 5 10 10 12 12 13 11
5 6 5 2 4 5 2 3 12 5 7 3 2 2 4 6 6 5 2 4 6 0 0 3 12 8 6 9 9 9 12 9 9 11 16 5 11 18 10 7 9 9 8 9 11
9 2 3 2 6 3 2 8 7 6 7 5 6 8 6 4 5 5 8 7 8 12 7 4 11 3 6 5 9 4 7 5 1 1 2 11 18 20 15 9 6 7 5 9 10
2 3 4 7 11 3 5 18 8 7 2 1 7 8 6 4 4 6 6 3 5 10 2 4 15 7 1 2 2 7 0 2 1 4 9 10 7 17 19 15 10 8 11 9 9
1 4 3 10 6 3 11 9 12 12 6 6 8 11 8 5 7 8 6 4 3 3 8 5 6 15 5 7 18 0 4 4 2 7 16 17 13 24 27 26 14 12 8 9 12
2 4 1 8 6 4 16 14 6 13 11 7 5 17 19 15 16 16 19 16 3 1 5 6 4 7 26 16 6 6 13 15 14 12 14 20 20 11 22 25 20 22 7 9 9
2 3 1 3 8 13 8 8 12 19 17 4 9 9 12 17 12 13 8 8 19 18 6 4 5 10 9 8 2 6 13 12 17 15 19 18 13 13 16 24 32 25 19 8 10
2 3 2 3 9 8 13 19 17 5 10 9 13 13 15 16 16 13 19 5 7 6 13 8 17 17 18 20 18 8 7 9 16 14 22 25 28 20 22 25 28 28 24 14 9
1 4 2 3 8 14 18 10 17 13 5 5 4 16 14 9 12 12 4 6 3 7 4 3 6 11 13 13 18 21 21 24 30 28 27 25 27 21 18 23 26 27 25 17 17
2 1 3 3 5 6 4 15 20 20 15 14 7 7 4 5 1 2 5 1 4 4 5 2 8 14 22 24 20 21 22 24 22 22 26 33 33 23 17 21 19 20 18 17 16
1 2 1 3 3 1 4 4 2 6 4 4 8 4 5 4 4 9 10 11 14 13 15 7 6 9 23 27 21 17 25 23 21 22 17 17 12 19 16 18 20 14 19 19 19
Wind_Direction
16 13 9 5 2 1 3 0 0 359 356 352 351 350 344 336 318 182 240 219 172 158 104 111 85 98 66 97 115 122 66 242 253 201 254 183 231 187 173 229 225 209 196 302 117
7 1 359 356 352 350 351 353 351 350 346 346 345 343 337 336 294 242 248 197 143 145 111 145 163 123 54 220 152 115 151 227 217 227 255 290 204 253 265 232 260 275 218 77 137
355 352 350 349 347 345 343 343 343 339 338 338 337 335 326 330 328 248 264 179 161 160 131 141 100 121 209 153 206 181 216 218 258 234 255 259 249 216 208 256 219 218 228 168 177
337 339 339 341 343 341 340 338 335 334 332 332 332 331 320 239 298 339 109 154 152 128 115 132 121 144 206 221 200 234 250 222 260 220 254 244 267 254 197 245 202 228 171 167 191
324 327 329 334 335 336 335 332 328 326 325 325 326 331 336 27 250 151 119 114 100 118 165 155 152 158 196 205 241 224 252 254 262 279 262 308 248 242 264 251 258 247 198 205 208
314 317 320 321 322 325 323 322 319 317 316 316 318 319 134 239 236 146 127 119 135 141 163 134 200 207 228 228 184 221 250 269 274 248 252 232 274 139 262 258 246 242 232 221 211
308 311 314 315 316 316 312 312 310 305 301 298 302 279 207 233 92 142 139 161 158 152 155 190 166 157 339 294 277 297 310 313 215 234 231 160 288 227 256 201 261 242 246 233 225
302 303 308 311 312 312 310 310 302 293 288 279 231 167 245 319 113 132 158 130 141 159 146 165 165 175 185 276 357 342 331 326 313 120 252 145 269 264 266 213 260 263 251 247 249
297 300 306 310 314 314 314 313 307 296 184 145 113 149 264 125 203 201 148 150 121 84 60 112 128 183 64 96 358 341 243 231 306 197 190 181 253 279 315 186 272 276 274 262 266
294 300 307 310 316 316 320 317 291 73 89 181 274 31 276 250 198 123 112 131 121 118 68 81 56 169 57 119 222 224 217 252 240 278 172 236 254 280 278 209 251 264 271 270 265
285 297 306 312 320 322 340 356 5 347 11 193 194 242 280 322 89 71 145 100 94 87 174 209 131 209 222 203 224 190 224 227 257 256 223 235 261 260 272 273 266 260 258 262 254
272 287 300 313 319 324 23 53 44 225 305 254 252 263 241 154 272 174 131 141 154 197 124 83 219 231 146 165 219 236 252 261 273 267 206 262 260 261 258 258 263 263 258 252 260
260 274 292 317 323 21 61 299 23 118 260 287 218 202 234 153 210 218 151 139 168 186 203 206 230 224 186 181 239 232 230 258 261 315 232 278 270 243 248 249 259 267 262 267 256
269 270 278 322 334 332 237 167 95 99 303 274 251 278 178 185 224 332 196 149 215 220 192 231 254 212 139 225 212 262 227 256 269 331 271 18 291 179 225 230 244 253 264 262 265
281 279 263 162 280 322 3 124 106 65 296 267 222 331 76 166 138 339 205 98 197 198 149 241 190 158 194 226 159 243 212 230 217 212 327 195 258 97 169 236 244 255 266 268 267
2 273 130 133 262 245 115 98 75 52 251 301 91 303 98 333 322 73 95 30 118 206 233 250 340 187 217 216 181 46 68 60 42 90 273 200 187 57 162 210 260 248 253 258 270
18 344 181 170 172 94 91 355 272 227 351 252 254 179 225 223 279 191 162 188 196 197 238 225 212 232 182 259 161 140 85 306 320 52 251 112 191 251 256 254 213 244 260 272 296
341 327 228 221 131 100 75 164 226 199 276 342 108 103 225 163 240 179 176 249 254 187 97 235 287 186 172 196 196 189 170 173 214 254 272 94 253 269 229 245 233 247 279 293 298
330 244 197 237 140 138 208 222 236 190 206 220 272 278 253 248 229 158 210 221 213 179 200 211 265 200 221 173 159 170 192 233 317 338 270 256 270 291 261 248 265 271 285 281 303
331 269 217 158 142 153 226 241 244 215 170 186 222 200 205 212 188 177 200 194 226 189 178 289 285 187 76 324 259 178 252 39 317 208 243 256 252 253 275 268 276 300 294 305 307
271 262 262 135 125 198 226 231 242 226 229 221 247 255 242 228 227 245 240 242 201 243 189 193 219 260 25 210 240 167 247 221 249 209 251 260 251 264 273 277 282 278 280 296 297
275 243 199 144 189 212 235 228 219 261 271 280 269 260 259 270 266 264 256 250 197 51 230 220 194 233 268 256 220 193 242 238 240 247 239 252 247 284 282 295 297 291 271 253 261
239 277 202 227 227 227 242 246 242 255 249 226 241 227 250 259 270 238 255 281 265 260 250 198 231 259 283 289 186 209 226 239 260 280 260 265 268 270 287 292 293 291 297 268 249
328 277 239 240 239 249 245 253 251 214 245 234 252 257 262 264 262 276 281 283 7 337 335 276 237 243 246 265 282 256 244 225 236 256 268 266 274 265 274 276 281 290 291 294 313
122 244 315 249 242 256 248 271 274 268 245 247 262 250 253 259 276 275 348 349 338 351 1 340 273 276 286 300 294 289 285 282 276 274 262 273 275 273 273 278 287 293 299 324 14
181 269 336 302 308 308 262 256 264 266 270 265 257 19 327 258 178 330 30 15 252 335 347 328 281 303 289 281 275 276 275 269 277 278 275 274 276 285 335 359 356 8 28 24 7
253 316 135 259 315 326 256 279 341 15 37 30 72 13 311 340 329 285 264 246 248 266 272 255 267 283 277 285 296 274 257 272 266 268 287 294 360 4 3 350 338 25 14 357 346